Regional Weather Roundup
Issued by NWS Boston, MA

Current Version | Previous Version | Text Only | Print | Product List | Glossary Off
Versions: 1 2 3 4 5 6 7 8 9 10 11 12 13 14 15 16 17 18 19 20 21 22 23 24 25 26 27 28 29 30 31 32 33 34 35 36 37 38 39 40 41 42 43 44 45 46 47 48 49 50

000
ASUS41 KBOX 232110
RWRBOX

REGIONAL WEATHER ROUNDUP
NATIONAL WEATHER SERVICE TAUNTON MA
500 PM EDT SAT MAY 23 2015

NOTE:  "FAIR" INDICATES FEW OR NO CLOUDS BELOW 12,000 FEET WITH NO
SIGNIFICANT WEATHER AND/OR OBSTRUCTIONS TO VISIBILITY.  THE FOLLOWING
OBSERVATION LOCATIONS DO NOT REPORT PRESENT WEATHER...PROVINCETOWN...
SMITHFIELD...BLOCK ISLAND...KEENE...AND OXFORD.

MAZALL-232200-
EASTERN MASSACHUSETTS

CITY           SKY/WX    TMP DP  RH WIND       PRES   REMARKS
BOSTON         SUNNY     64  21  19 W14G22    30.26F
BEVERLY        SUNNY     63  22  20 NW8G21    30.25F
LAWRENCE       SUNNY     63  24  22 W13       30.26F
BEDFORD        SUNNY     64  20  18 NW12G21   30.25F
BLUE HILL        N/A     62  23  22 W14G29    30.26F
NORWOOD        SUNNY     64  24  21 NW17G24   30.27F
MARSHFIELD     SUNNY     64  25  22 W7        30.29S
PLYMOUTH       SUNNY     63  21  20 W10       30.28F
TAUNTON        SUNNY     64  22  20 W6        30.27F
NEW BEDFORD    SUNNY     63  25  23 W10G21    30.28F
$$

MAZALL-232200-
CAPE COD AND THE ISLANDS

CITY           SKY/WX    TMP DP  RH WIND       PRES   REMARKS
FALMOUTH       SUNNY     57  37  47 SW20      30.29F
HYANNIS        SUNNY     58  34  40 SW21G28   30.28F
CHATHAM        SUNNY     56  37  49 SW12G22   30.31F
PROVINCETOWN   SUNNY     57  30  35 SW9       30.29F
NANTUCKET      SUNNY     55  32  41 W20       30.33F
MARTHAS VNYRD  SUNNY     57  35  43 SW17G24   30.32F
$$

MAZALL-232200-
CENTRAL AND WESTERN MASSACHUSETTS

CITY           SKY/WX    TMP DP  RH WIND       PRES   REMARKS
WORCESTER      SUNNY     61  22  22 W14G22    30.29F
FITCHBURG      SUNNY     63  21  20 W10       30.28F
ORANGE         SUNNY     62  21  20 W15       30.29F
SPRINGFIELD    SUNNY     64  19  17 NW16G22   30.28F
WESTFIELD      SUNNY     66  20  17 W12G20    30.30F
NORTH ADAMS    SUNNY     60  26  27 W9        30.30F
PITTSFIELD     SUNNY     59  25  27 W15G23    30.30F
$$

RIZALL-232200-
RHODE ISLAND

CITY           SKY/WX    TMP DP  RH WIND       PRES   REMARKS
PROVIDENCE     SUNNY     65  23  20 W9G21     30.29F
NEWPORT        SUNNY     57  35  43 SW9G18    30.30F
BLOCK ISLAND   SUNNY     55  36  47 SW18      30.34S
SMITHFIELD     SUNNY     63  25  23 NW7G17    30.29S
WESTERLY       SUNNY     59  31  34 SW14G24   30.33F
$$

CTZALL-232200-
CONNECTICUT

CITY           SKY/WX    TMP DP  RH WIND       PRES   REMARKS
BRADLEY INTL   SUNNY     67  23  19 W15       30.30F
HARTFORD       SUNNY     65  24  21 W14       30.31F
BRIDGEPORT     SUNNY     62  33  33 S13       30.34F
DANBURY        SUNNY     64  27  24 W9        30.34F
GROTON         SUNNY     57  34  41 SW17G23   30.32F
NEW HAVEN      SUNNY     60  35  39 S12       30.33F
CHESTER        FAIR      61  32  33 SW3       30.33S
MERIDEN        SUNNY     66  24  20 NW10      30.32F
WILLIMANTIC    SUNNY     64  23  21 W12G17    30.31F
OXFORD         SUNNY     63  28  27 NW9       30.34F
$$

MEZ002-015-021-024-NHZ003-005-008-011-012-014-VTZ005-008-232200-
NORTHERN NEW ENGLAND

CITY           SKY/WX    TMP DP  RH WIND       PRES   REMARKS
PORTLAND ME    SUNNY     64  23  21 W18       30.20F
BANGOR ME      MOSUNNY   57  20  23 NW14G21   30.15F
CONCORD NH     SUNNY     63  19  18 NW14      30.25F
MANCHESTER NH  SUNNY     63  18  17 W12G18    30.24F
NASHUA NH      SUNNY     64  21  19 W8        30.26F
PORTSMOUTH NH  SUNNY     63  20  19 NW13G24   30.22F
JAFFREY NH     SUNNY     60  21  22 W9        30.28F
KEENE NH       SUNNY     63  21  20 NW7       30.28F
BURLINGTON VT  PTSUNNY   63  19  18 W12G17    30.24F
MT. WASHINGTON MOSUNNY   27  14  59 W54G61      N/A  WCI   6
$$

NYZ052-076-232200-
EASTERN NEW YORK

CITY           SKY/WX    TMP DP  RH WIND       PRES   REMARKS
ALBANY         SUNNY     64  27  24 NW15      30.33F
NEW YORK CITY  SUNNY     68  22  17 VRB3      30.33F
$$

ANZALL-232200-
MARINE OBSERVATIONS

STATION/POSITION TIME  TEMP    WIND        PRES    VSBY  WAVE
                       AIR SEA DIR/SP/G                  HT/PER
                 (UTC) (F)     (DEG/KT/KT) (MB)    (MI)  (FT/S)
BOSTON BUOY      2050   57 53  220/  6/  8   N/A           1/ 8
BUZZARDS BAY     2100          220/ 18/ 19   N/A
NANTUCKET SOUND  2050   53 56  230/ 19/ 25   N/A           2/ 4
MASS BAY-STELLWA 2004   54     250/  8/  8   N/A    1 7/8
ISLE OF SHOALS   2100   58     280/ 12/ 13   N/A
S OF BLOCK IS    2008      53                N/A           3/ 4
$$

......................KEY.........................
  SKY/WX - SKY CONDITION/PRESENT WEATHER
  TMP    - TEMPERATURE IN FAHRENHEIT
  DWPT   - DEWPOINT IN FAHRENHEIT
  RH     - RELATIVE HUMIDITY IN PERCENT
  WIND   - DIRECTION AND SPEED IN MPH
  PRES   - MEAN SEA LEVEL PRESSURE IN INCHES OF HG
  WCI    - WIND CHILL INDEX
  VSB    - VISIBILITY IN MILES
  HX     - HEAT INDEX
  TC     - TEMPERATURE IN CELSIUS
  VRB    - VARIABLE WIND DIRECTION
  N/A    - NOT AVAILABLE



USA.gov is the U.S. government's official web portal to all federal, state and local government web resources and services.